This demonstration page uses our WeatherBlox Daily Observations layout. Learn more.

Left ArrowRight Arrow

Hourly Observations for November 21, 2021

Temp ( °F °C ) Dew Point ( °F °C ) Humidity (%) Winds ( mph kmh ) Pressure ( in mb ) Visibility ( mi km ) Precip ( " mm )
12:31 am 00:31 Cloudy 48 8.9 30 -1.1 50 50 Calm 30.36 1028 10 16 0.00 0.00
12:53 am 00:53 Mostly Cloudy 47 8.3 30 -1.1 52 52 NE 3 6 30.34 1027 10 16 0.00 0.00
1:00 am 01:00 Cloudy 47 8.3 30 -1.1 52 52 NE 3 6 30.36 1028 10 16 0.00 0.00
1:53 am 01:53 Cloudy 49 9.4 30 -1.1 48 48 NE 3 6 30.33 1027 10 16 0.00 0.00
2:53 am 02:53 Cloudy 49 9.4 30 -1.1 48 48 ENE 3 6 30.32 1027 10 16 0.00 0.00
3:53 am 03:53 Cloudy 48 8.9 29 -1.7 48 48 NE 6 9 30.31 1027 10 16 0.00 0.00
4:53 am 04:53 Cloudy 49 9.4 29 -1.7 46 46 NE 6 9 30.31 1027 10 16 0.00 0.00
5:53 am 05:53 Mostly Cloudy 47 8.3 29 -1.7 50 50 ENE 5 7 30.32 1027 10 16 0.00 0.00
6:00 am 06:00 Mostly Cloudy 47 8.3 29 -1.7 50 50 ENE 6 9 30.33 1027 10 16 0.00 0.00
6:53 am 06:53 Partly Cloudy 46 7.8 29 -1.7 51 51 Calm 30.31 1026 10 16 0.00 0.00
7:38 am 07:38 Mostly Cloudy 45 7.2 30 -1.1 56 56 Calm 30.33 1027 10 16 0.00 0.00
7:51 am 07:51 Cloudy 45 7 32 0 61 61 Calm 30.33 1027 10 16 0.00 0.00
7:53 am 07:53 Cloudy 45 7.2 32 0 61 61 Calm 30.32 1027 10 16 0.00 0.00
8:53 am 08:53 Cloudy 48 8.9 32 0 54 54 ENE 5 7 30.33 1027 10 16 0.00 0.00
9:53 am 09:53 Cloudy 50 10 41 5 71 71 ESE 7 11 30.31 1027 10 16 0.00 0.00
10:53 am 10:53 Cloudy 52 11.1 43 6.1 72 72 SE 5 7 30.31 1027 10 16 0.00 0.00
11:08 am 11:08 Cloudy 53 11.7 44 6.7 72 72 VRB 5 7 30.31 1027 10 16 0.00 0.00
11:53 am 11:53 Cloudy 55 12.8 45 7.2 69 69 VRB 6 9 30.28 1025 10 16 0.00 0.00
12:21 pm 12:21 Mostly Sunny 57 13.9 47 8.3 69 69 Calm 30.26 1025 10 16 0.00 0.00
12:53 pm 12:53 Sunny 60 15.6 47 8.3 62 62 SSE 6 9 30.24 1024 10 16 0.00 0.00
1:53 pm 13:53 Sunny 63 17.2 48 8.9 58 58 Calm 30.19 1022 10 16 0.00 0.00
2:53 pm 14:53 Mostly Cloudy 63 17.2 49 9.4 60 60 SSW 6 9 30.16 1021 10 16 0.00 0.00
3:53 pm 15:53 Sunny 64 17.8 51 10.6 63 63 SSE 7 11 30.14 1021 10 16 0.00 0.00
4:53 pm 16:53 Mostly Cloudy 64 17.8 52 11.1 65 65 S 5 7 30.13 1020 10 16 0.00 0.00
5:53 pm 17:53 Clear 62 16.7 52 11.1 70 70 SSE 5 7 30.11 1020 10 16 0.00 0.00
6:53 pm 18:53 Mostly Cloudy 58 14.4 52 11.1 81 81 Calm 30.11 1020 10 16 0.00 0.00
7:53 pm 19:53 Cloudy 57 13.9 52 11.1 83 83 Calm 30.11 1020 10 16 0.00 0.00
8:53 pm 20:53 Mostly Cloudy 58 14.4 52 11.1 81 81 Calm 30.09 1019 10 16 0.00 0.00
9:53 pm 21:53 Cloudy 57 13.9 52 11.1 83 83 Calm 30.08 1019 10 16 0.00 0.00
10:53 pm 22:53 Mostly Cloudy 58 14.4 53 11.7 84 84 WNW 3 6 30.05 1018 10 16 0.00 0.00
11:53 pm 23:53 Cloudy 57 13.9 53 11.7 87 87 Calm 30.04 1017 10 16 0.00 0.00

Powered by AerisWeather